This is the latest recevied weather packets stored in our database for station/object DK9XR-14. If no packets are shown the sender has not sent any weather packets the latest 10 day(s).
| Time | Temp. | Humidity | Pressure | Rain* | Wind** | Luminosity | Snow |
|---|---|---|---|---|---|---|---|
| 1776948443 | 17.22° C | 27% | 1026.5 hPa | 0 mm | - | - | - |
| 1776948145 | 17.22° C | 26% | 1026.5 hPa | 0 mm | - | - | - |
| 1776947842 | 17.22° C | 25% | 1026.5 hPa | 0 mm | - | - | - |
| 1776947541 | 17.22° C | 28% | 1026.6 hPa | 0 mm | - | - | - |
| 1776947242 | 16.67° C | 29% | 1026.7 hPa | 0 mm | - | - | - |
| 1776946939 | 16.67° C | 28% | 1026.7 hPa | 0 mm | - | - | - |
| 1776946638 | 16.67° C | 29% | 1026.8 hPa | 0 mm | - | - | - |
| 1776946334 | 16.11° C | 29% | 1026.8 hPa | 0 mm | - | - | - |
| 1776946033 | 16.11° C | 28% | 1026.9 hPa | 0 mm | - | - | - |
| 1776945731 | 16.11° C | 27% | 1026.8 hPa | 0 mm | - | - | - |
| 1776945429 | 16.11° C | 30% | 1026.8 hPa | 0 mm | - | - | - |
| 1776945130 | 16.11° C | 31% | 1026.8 hPa | 0 mm | - | - | - |
| 1776944829 | 15.56° C | 32% | 1027 hPa | 0 mm | - | - | - |
| 1776944526 | 15.56° C | 32% | 1027 hPa | 0 mm | - | - | - |
| 1776944224 | 16.11° C | 31% | 1027 hPa | 0 mm | - | - | - |
| 1776943921 | 15.56° C | 31% | 1027 hPa | 0 mm | - | - | - |
| 1776943622 | 15.56° C | 33% | 1027.1 hPa | 0 mm | - | - | - |
| 1776943321 | 15.56° C | 32% | 1027 hPa | 0 mm | - | - | - |
| 1776943021 | 15.56° C | 31% | 1027.1 hPa | 0 mm | - | - | - |
| 1776942721 | 15.56° C | 31% | 1027.3 hPa | 0 mm | - | - | - |
| 1776942422 | 15.56° C | 29% | 1027.4 hPa | 0 mm | - | - | - |
| 1776942121 | 15.56° C | 34% | 1027.3 hPa | 0 mm | - | - | - |
| 1776941822 | 15° C | 34% | 1027.4 hPa | 0 mm | - | - | - |
| 1776941522 | 15° C | 34% | 1027.4 hPa | 0 mm | - | - | - |
| 1776941222 | 14.44° C | 34% | 1027.5 hPa | 0 mm | - | - | - |
* Rain latest hour (hover to see other rain measurements)
** Current wind speed in m/s (hover to see current wind gust speed)